CFDAA CSX7-CYCE

Flight info

Callsign CFDAA
Flight time 0h -32m
Altitude 4000
Route BOSEP DCT CYZR/N0193F050 DCT HAVOK DCT CYXU DCT TETOS DCT CYKF/N0191F040
Aircraft BE58/L-SBGRZ/EB2

Departure

Time 2026-04-25 00:30
Airport Sexsmith (Exeter) Airport (CSX7)

Arrival

Time 2026-04-24 23:58
Airport Centralia / James T. Field Memorial Aerodrome (CYCE)
Time Latitude Longitude Altitude Speed Heading
2026-04-24 23:58 43.37590 -81.51158 849 ft 0 kts 80°
2026-04-25 00:30 43.37594 -81.51132 845 ft 24 kts 84°
2026-04-25 00:30 43.37681 -81.50474 899 ft 108 kts 84°
2026-04-25 00:30 43.37890 -81.49331 1471 ft 127 kts 79°
2026-04-25 00:30 43.38146 -81.48134 2163 ft 141 kts 79°
2026-04-25 00:31 43.38204 -81.46770 2666 ft 146 kts 120°
2026-04-25 00:31 43.37485 -81.45911 3195 ft 139 kts 177°
2026-04-25 00:31 43.36533 -81.45956 3762 ft 137 kts 197°
2026-04-25 00:31 43.35677 -81.46486 3985 ft 136 kts 223°
2026-04-25 00:32 43.35084 -81.47541 3998 ft 144 kts 243°
2026-04-25 00:32 43.34604 -81.48783 4005 ft 150 kts 243°
2026-04-25 00:32 43.34089 -81.50051 4006 ft 154 kts 242°
2026-04-25 00:32 43.33530 -81.51318 4006 ft 155 kts 240°
2026-04-25 00:33 43.32956 -81.52570 4004 ft 155 kts 240°
2026-04-25 00:33 43.32378 -81.53820 4004 ft 155 kts 239°
2026-04-25 00:33 43.31796 -81.55070 4004 ft 155 kts 239°
2026-04-25 00:33 43.31216 -81.56326 3999 ft 156 kts 240°
2026-04-25 00:34 43.30636 -81.57583 3998 ft 156 kts 240°
2026-04-25 00:34 43.30055 -81.58840 3997 ft 156 kts 240°
2026-04-25 00:34 43.29470 -81.60101 3997 ft 156 kts 240°
2026-04-25 00:34 43.28885 -81.61352 3995 ft 155 kts 239°
2026-04-25 00:35 43.28298 -81.62601 3996 ft 156 kts 239°
2026-04-25 00:35 43.27713 -81.63855 4000 ft 156 kts 240°
2026-04-25 00:35 43.27129 -81.65115 3998 ft 156 kts 239°
2026-04-25 00:35 43.26552 -81.66377 4000 ft 156 kts 240°
2026-04-25 00:36 43.25970 -81.67638 3998 ft 156 kts 239°
2026-04-25 00:36 43.25383 -81.68890 3998 ft 156 kts 240°
2026-04-25 00:36 43.24796 -81.70143 3997 ft 157 kts 239°
2026-04-25 00:36 43.24208 -81.71397 3997 ft 155 kts 238°
2026-04-25 00:37 43.23628 -81.72643 3997 ft 155 kts 241°